Date String (YYYY-MM-DD hh:mm:ss) UTC,Instrument flags,absolute air pressure of the measurement (hPa),sample flow rate (lpm),inlet stack bypass flow (lpm),air temperature of the measurement (°C),ambient temperature measured by the external sensor (°C),aerosol sample conditioner tube jacket temperature (°C),OPC LED temperature (°C),internal box temperature (°C),relative humidity of the measurement (%),span deviation,mass concentration of particles derived from Lorenz-Mie calculation of OPC scattering (μg/m³),mass concentration of particles derived from Lorenz-Mie calculation of OPC scattering (μg/m³),mass concentration of particles derived from Lorenz-Mie calculation of OPC scattering (μg/m³)
DateTimeUTC,F1_M11,P_M11,Q1_M11,Q2_M11,T1_M11,T2_M11,T3_M11,T4_M11,T5_M11,U1_M11,ZSPAN_M11,X0_M11,X2_M11,X1_M11
2023-11-21 07:00:00,SystemResetWarning,0841.7,5.00,000.00,020.9,020.0,000.0,029.4,022.0,16.8,0000.0,0002.69,0001.78,0001.45
2023-11-21 07:01:00,SystemResetWarning,0841.7,5.00,000.00,020.9,019.9,000.0,029.4,022.0,16.7,0000.0,0002.64,0001.77,0001.44
2023-11-21 07:02:00,SystemResetWarning,0841.7,4.99,000.00,020.9,019.9,000.0,029.3,022.0,16.7,0000.0,0002.70,0001.81,0001.44
2023-11-21 07:03:00,SystemResetWarning,0841.7,5.00,000.00,020.9,019.9,000.0,029.3,022.0,16.7,0000.0,0002.60,0001.78,0001.44
2023-11-21 07:04:00,SystemResetWarning,0841.7,5.01,000.00,020.9,019.9,000.0,029.3,022.0,16.8,0000.0,0002.53,0001.76,0001.44
2023-11-21 07:05:00,SystemResetWarning,0841.7,5.00,000.00,020.9,019.9,000.0,029.3,022.0,16.8,0000.0,0002.50,0001.76,0001.45
2023-11-21 07:06:00,SystemResetWarning,0841.7,5.00,000.00,020.9,019.9,000.0,029.3,022.0,16.8,0000.0,0002.57,0001.78,0001.47
2023-11-21 07:07:00,SystemResetWarning,0841.7,5.00,000.00,020.9,019.9,000.0,029.3,022.0,16.8,0000.0,0002.48,0001.77,0001.48
2023-11-21 07:08:00,SystemResetWarning,0841.7,4.99,000.00,020.8,019.9,000.0,029.3,021.9,16.8,0000.0,0003.34,0001.74,0001.48
2023-11-21 07:09:00,SystemResetWarning,0841.7,5.00,000.00,020.8,019.9,000.0,029.3,022.0,16.8,0000.0,0003.54,0001.75,0001.48
2023-11-21 07:10:00,SystemResetWarning,0841.7,5.00,000.00,020.8,019.9,000.0,029.2,021.9,16.8,0000.0,0003.54,0001.74,0001.48
2023-11-21 07:11:00,SystemResetWarning,0841.6,4.99,000.00,020.8,019.9,000.0,029.2,022.0,16.8,0000.0,0003.52,0001.74,0001.48
2023-11-21 07:12:00,SystemResetWarning,0841.6,5.01,000.00,020.8,019.8,000.0,029.2,021.9,16.8,0000.0,0003.52,0001.75,0001.49
2023-11-21 07:13:00,SystemResetWarning,0841.6,5.00,000.00,020.8,019.8,000.0,029.2,021.9,16.8,0000.0,0003.45,0001.72,0001.50
2023-11-21 07:14:00,SystemResetWarning,0841.6,5.00,000.00,020.8,019.8,000.0,029.2,021.9,16.8,0000.0,0003.56,0001.74,0001.50
2023-11-21 07:15:00,SystemResetWarning,0841.6,5.01,000.00,020.8,019.8,000.0,029.2,021.9,16.8,0000.0,0003.66,0001.75,0001.51
2023-11-21 07:16:00,SystemResetWarning,0841.6,5.01,000.00,020.7,019.8,000.0,029.2,021.8,16.9,0000.0,0003.81,0001.78,0001.52
2023-11-21 07:17:00,SystemResetWarning,0841.6,5.00,000.00,020.7,019.7,000.0,029.2,021.9,16.9,0000.0,0004.36,0001.78,0001.52
2023-11-21 07:18:00,SystemResetWarning,0841.7,5.00,000.00,020.7,019.7,000.0,029.1,021.8,16.9,0000.0,0005.64,0001.77,0001.51
2023-11-21 07:19:00,SystemResetWarning,0841.6,4.99,000.00,020.7,019.7,000.0,029.1,021.8,16.9,0000.0,0005.22,0001.77,0001.52
2023-11-21 07:20:00,SystemResetWarning,0841.7,5.00,000.00,020.7,019.7,000.0,029.1,021.8,16.9,0000.0,0004.51,0001.75,0001.51
2023-11-21 07:21:00,SystemResetWarning,0841.7,5.00,000.00,020.6,019.7,000.0,029.1,021.7,16.9,0000.0,0004.43,0001.74,0001.51
2023-11-21 07:22:00,SystemResetWarning,0841.7,4.99,000.00,020.6,019.7,000.0,029.1,021.7,17.0,0000.0,0004.69,0001.73,0001.50
2023-11-21 07:23:00,SystemResetWarning,0841.7,5.00,000.00,020.6,019.6,000.0,029.1,021.7,17.0,0000.0,0005.36,0001.70,0001.49
2023-11-21 07:24:00,SystemResetWarning,0841.7,5.00,000.00,020.6,019.6,000.0,029.0,021.7,16.9,0000.0,0005.35,0001.69,0001.48
2023-11-21 07:25:00,SystemResetWarning,0841.7,5.00,000.00,020.6,019.6,000.0,029.0,021.7,17.0,0000.0,0005.21,0001.63,0001.46
2023-11-21 07:26:00,SystemResetWarning,0841.7,5.00,000.00,020.6,019.6,000.0,029.0,021.7,17.0,0000.0,0005.08,0001.60,0001.43
2023-11-21 07:27:00,SystemResetWarning,0841.7,5.00,000.00,020.6,019.6,000.0,029.0,021.6,17.0,0000.0,0004.91,0001.55,0001.41
2023-11-21 07:28:00,SystemResetWarning,0841.7,5.00,000.00,020.5,019.6,000.0,029.0,021.6,17.0,0000.0,0004.63,0001.53,0001.40
2023-11-21 07:29:00,SystemResetWarning,0841.7,5.00,000.00,020.5,019.6,000.0,029.0,021.6,17.1,0000.0,0002.95,0001.51,0001.40
2023-11-21 07:30:00,SystemResetWarning,0841.6,5.00,000.00,020.5,019.5,000.0,029.0,021.6,17.1,0000.0,0002.92,0001.51,0001.39
2023-11-21 07:31:00,SystemResetWarning,0841.6,5.00,000.00,020.5,019.5,000.0,029.0,021.5,17.0,0000.0,0002.88,0001.51,0001.39
2023-11-21 07:32:00,SystemResetWarning,0841.6,5.00,000.00,020.5,019.5,000.0,028.9,021.6,16.9,0000.0,0002.93,0001.53,0001.40
2023-11-21 07:33:00,SystemResetWarning,0841.6,5.00,000.00,020.5,019.5,000.0,028.9,021.6,16.9,0000.0,0002.81,0001.54,0001.41
2023-11-21 07:34:00,SystemResetWarning,0841.6,4.99,000.00,020.5,019.4,000.0,028.9,021.6,16.9,0000.0,0001.99,0001.56,0001.42
2023-11-21 07:35:00,SystemResetWarning,0841.6,5.00,000.00,020.4,019.4,000.0,028.9,021.6,17.0,0000.0,0001.98,0001.57,0001.43
2023-11-21 07:36:00,SystemResetWarning,0841.5,4.99,000.00,020.4,019.5,000.0,028.9,021.6,17.0,0000.0,0002.01,0001.59,0001.44
2023-11-21 07:37:00,SystemResetWarning,0841.6,5.00,000.00,020.4,019.5,000.0,028.9,021.6,17.1,0000.0,0001.98,0001.59,0001.46
2023-11-21 07:38:00,SystemResetWarning,0841.6,5.00,000.00,020.4,019.5,000.0,028.9,021.6,17.1,0000.0,0002.33,0001.62,0001.48
2023-11-21 07:39:00,SystemResetWarning,0841.6,5.00,000.00,020.4,019.5,000.0,028.9,021.5,17.1,0000.0,0002.60,0001.67,0001.52
2023-11-21 07:40:00,SystemResetWarning,0841.6,5.00,000.00,020.4,019.5,000.0,028.8,021.6,17.0,0000.0,0002.67,0001.70,0001.53
2023-11-21 07:41:00,SystemResetWarning,0841.6,5.00,000.00,020.4,019.4,000.0,028.8,021.5,17.0,0000.0,0002.77,0001.74,0001.53
2023-11-21 07:42:00,SystemResetWarning,0841.6,5.01,000.00,020.4,019.4,000.0,028.8,021.5,17.0,0000.0,0002.79,0001.77,0001.55
2023-11-21 07:43:00,SystemResetWarning,0841.6,5.01,000.00,020.4,019.4,000.0,028.8,021.5,17.0,0000.0,0002.84,0001.77,0001.54
2023-11-21 07:44:00,SystemResetWarning,0841.7,5.00,000.00,020.4,019.4,000.0,028.8,021.5,17.1,0000.0,0002.93,0001.79,0001.54
2023-11-21 07:45:00,SystemResetWarning,0841.7,5.00,000.00,020.3,019.4,000.0,028.8,021.5,17.0,0000.0,0002.91,0001.78,0001.54
2023-11-21 07:46:00,SystemResetWarning,0841.7,5.00,000.00,020.3,019.4,000.0,028.8,021.4,17.0,0000.0,0002.94,0001.80,0001.54
2023-11-21 07:47:00,SystemResetWarning,0841.6,4.99,000.00,020.3,019.4,000.0,028.8,021.4,16.9,0000.0,0003.07,0001.83,0001.54
2023-11-21 07:48:00,SystemResetWarning,0841.6,5.00,000.00,020.3,019.3,000.0,028.8,021.4,16.9,0000.0,0003.10,0001.84,0001.54
2023-11-21 07:49:00,SystemResetWarning,0841.6,5.01,000.00,020.3,019.3,000.0,028.7,021.4,17.0,0000.0,0002.78,0001.81,0001.52
2023-11-21 07:50:00,SystemResetWarning,0841.6,5.00,000.00,020.3,019.3,000.0,028.7,021.4,17.1,0000.0,0002.60,0001.79,0001.50
2023-11-21 07:51:00,SystemResetWarning,0841.6,4.99,000.00,020.3,019.3,000.0,028.7,021.4,17.1,0000.0,0002.64,0001.80,0001.50
2023-11-21 07:52:00,SystemResetWarning,0841.6,4.99,000.00,020.2,019.3,000.0,028.7,021.4,17.0,0000.0,0002.62,0001.79,0001.51
2023-11-21 07:53:00,SystemResetWarning,0841.6,5.00,000.00,020.2,019.3,000.0,028.7,021.4,17.0,0000.0,0002.71,0001.78,0001.51
2023-11-21 07:54:00,SystemResetWarning,0841.7,5.00,000.00,020.2,019.3,000.0,028.7,021.4,17.1,0000.0,0002.85,0001.85,0001.52
2023-11-21 07:55:00,SystemResetWarning,0841.6,5.00,000.00,020.2,019.3,000.0,028.7,021.3,17.1,0000.0,0002.79,0001.87,0001.53
2023-11-21 07:56:00,SystemResetWarning,0841.7,5.00,000.00,020.2,019.3,000.0,028.7,021.3,17.1,0000.0,0002.80,0001.87,0001.52
2023-11-21 07:57:00,SystemResetWarning,0841.7,5.00,000.00,020.2,019.3,000.0,028.7,021.3,17.2,0000.0,0002.78,0001.87,0001.53
2023-11-21 07:58:00,SystemResetWarning,0841.7,5.00,000.00,020.2,019.3,000.0,028.6,021.3,17.2,0000.0,0002.68,0001.84,0001.52
2023-11-21 07:59:00,SystemResetWarning,0841.7,5.00,000.00,020.2,019.3,000.0,028.6,021.3,17.2,0000.0,0002.63,0001.83,0001.53
